Location: Gleizolles
(44.4833°N, 6.7667°E)
Time: 10:09:44
(UTC+00:00)

A-11 Canister half - Pass Details

Date: 19 June 2024
Orbit: 1515 x 1685 km, 47.2° (Epoch: 13 July)

Event Time Altitude Azimuth Distance (km) Brightness Sun altitude
Rises 22:16:12 0° 286° (WNW) 4,888 12.1 -19.8°
Reaches altitude 10° 22:19:23 10° 287° (WNW) 3,880 11.6 -19.9°
Maximum altitude 22:29:19 88° 16° (NNE) 1,602 9.0 -20.5°
Drops below altitude 10° 22:38:52 10° 108° (ESE) 3,738 10.7 -20.9°
Sets 22:41:52 0° 109° (ESE) 4,701 11.3 -21.0°
